History for Miami, FL

Saturday, November 10, 2012 — View Current Conditions

Jump to Data:

Date:
Airport Code:
Recently Viewed Airport Codes: KMIA
Daily Summary
  Actual Average Record
Temperature
Mean Temperature 74°F 76°F  
Max Temperature 78°F 83°F 88°F (1987)
Min Temperature 70°F 69°F 48°F (1913)
Degree Days
Heating Degree Days 0 0  
Month to date heating degree days 1 0  
Since 1 July heating degree days 1 0  
Cooling Degree Days 9 11  
Month to date cooling degree days 61 115  
Year to date cooling degree days 4300 4187  
Growing Degree Days 24 (Base 50)    
Moisture
Dew Point 53°F    
Average Humidity 48    
Maximum Humidity 57    
Minimum Humidity 39    
Precipitation
Precipitation T in 0.12 in 1.29 in (1978)
Month to date precipitation T 1.32  
Year to date precipitation 85.93 57.91  
Snow
Snow 0.00 in in in ()
Month to date snowfall 0.0  
Since 1 July snowfall 0.0  
Since 1 September snowfall 0.0  
Snow Depth 0.00 in    
Sea Level Pressure
Sea Level Pressure 30.21 in    
Wind
Wind Speed 9 mph (NE)    
Max Wind Speed 21 mph    
Max Gust Speed 25 mph    
Visibility 10 miles    
Events      
T = Trace of Precipitation, MM = Missing Value Source: NWS Daily Summary

Show full METARS

(help) - Comma Delimited File

Hourly Observations

Time(EST) Temperature Dew Point Humidity Sea Level Pressure Visibility Wind Direction Wind Speed Gust Speed Precipitation Events Conditions
12:53 AM 70.0°F 50.0°F 49% 30.19 in 10.0 miles NE 5.8 mph - N/A   Overcast
1:53 AM 70.0°F 50.0°F 49% 30.17 in 10.0 miles Calm Calm - N/A   Overcast
2:53 AM 69.8°F 51.8°F 53% 30.17 in 10.0 miles NE 3.5 mph - N/A   Overcast
3:53 AM 70.0°F 50.0°F 49% 30.17 in 10.0 miles NE 4.6 mph - N/A   Overcast
4:53 AM 70.0°F 50.0°F 49% 30.19 in 10.0 miles NNE 4.6 mph - N/A   Overcast
5:53 AM 70.0°F 51.1°F 51% 30.20 in 10.0 miles NNE 4.6 mph - N/A   Overcast
6:53 AM 71.1°F 50.0°F 47% 30.21 in 10.0 miles NE 5.8 mph - N/A   Overcast
7:53 AM 72.0°F 51.1°F 48% 30.23 in 10.0 miles NNE 4.6 mph - N/A   Mostly Cloudy
8:53 AM 73.0°F 50.0°F 44% 30.25 in 10.0 miles NE 11.5 mph - N/A   Mostly Cloudy
9:53 AM 75.9°F 53.1°F 45% 30.26 in 10.0 miles ENE 10.4 mph 19.6 mph N/A   Mostly Cloudy
10:53 AM 77.0°F 51.1°F 40% 30.26 in 10.0 miles East 12.7 mph 25.3 mph N/A   Mostly Cloudy
11:53 AM 75.0°F 53.1°F 46% 30.25 in 10.0 miles ENE 8.1 mph 17.3 mph N/A   Mostly Cloudy
12:53 PM 78.1°F 52.0°F 40% 30.22 in 10.0 miles ENE 13.8 mph 19.6 mph N/A   Mostly Cloudy
1:53 PM 75.9°F 51.1°F 42% 30.20 in 10.0 miles NE 13.8 mph - N/A   Mostly Cloudy
2:53 PM 75.0°F 53.1°F 46% 30.18 in 10.0 miles ENE 13.8 mph 19.6 mph N/A   Mostly Cloudy
3:53 PM 75.0°F 54.0°F 48% 30.18 in 10.0 miles ENE 15.0 mph 20.7 mph N/A   Mostly Cloudy
4:53 PM 73.9°F 54.0°F 50% 30.19 in 10.0 miles NE 13.8 mph 21.9 mph N/A   Mostly Cloudy
5:53 PM 73.0°F 54.0°F 51% 30.20 in 10.0 miles NE 10.4 mph - N/A   Mostly Cloudy
6:53 PM 72.0°F 55.0°F 55% 30.22 in 10.0 miles NE 6.9 mph - N/A   Mostly Cloudy
7:53 PM 72.0°F 55.9°F 57% 30.22 in 10.0 miles ENE 9.2 mph 17.3 mph N/A   Scattered Clouds
8:53 PM 73.0°F 57.0°F 57% 30.23 in 10.0 miles ENE 11.5 mph 19.6 mph N/A   Mostly Cloudy
9:53 PM 73.0°F 57.9°F 59% 30.22 in 10.0 miles ENE 12.7 mph 18.4 mph N/A   Mostly Cloudy
10:53 PM 73.4°F 57.2°F 57% 30.22 in 10.0 miles East 12.7 mph 18.4 mph N/A   Mostly Cloudy
11:53 PM 75.2°F 55.4°F 50% 30.20 in 10.0 miles East 12.7 mph 20.7 mph N/A   Mostly Cloudy